Palmer, AK

10:48 AM AKDT on May 25, 2017 (GMT -0800)
Palmer Municipal

Weather History for PAAQ - April, 2013

Change the Weather History Date:

Wednesday, April 24, 2013

  Actual Average Record
Temperature  
Mean Temperature 37 °F -  
Max Temperature 41 °F 50 °F 62 °F (2003)
Min Temperature 33 °F 30 °F 20 °F (1955)
Degree Days  
Heating Degree Days 28    
Moisture  
Dew Point 34 °F    
Average Humidity 91    
Maximum Humidity 100    
Minimum Humidity 76    
Precipitation  
Precipitation 0.03 in - - ()
Sea Level Pressure  
Sea Level Pressure 30.14 in    
Wind  
Wind Speed 1 mph (SW)    
Max Wind Speed 7 mph    
Max Gust Speed -    
Visibility 6 miles    
Events Fog , Rain    
Averages and records for this station are not official NWS values.
T = Trace of Precipitation, MM = Missing Value Source: NWS Daily Summary

Daily Weather History Graph

Daily Weather History Graph

Search for Another Location

Airport or City:

Trip Planner

Search our weather history database for the weather conditions in past years. The results will help you decide how hot, cold, wet, or windy it might be!

Date:

Astronomy

Apr. 24, 2013 Rise Set
Actual Time 6:05 AM AKDT 9:45 PM AKDT
Civil Twilight 5:11 AM AKDT 10:39 PM AKDT
Nautical Twilight 3:50 AM AKDT 12:03 AM AKDT
Astronomical Twilight 2:26 AM AKDT Sun does not set
Moon 8:54 PM AKDT (4/24) 5:34 AM AKDT (4/24)
Length of Visible Light 17h 28m
Length of Day
15h 40m
Waxing Gibbous, 99% of the Moon is Illuminated
Apr 24
Waxing Gibbous
Apr 25
Full
May 2
Last Quarter
May 9
New
May 17
First Quarter

Hourly Weather History & Observations

Time (AKDT) Temp. Windchill Dew Point Humidity Pressure Visibility Wind Dir Wind Speed Gust Speed Precip Events Conditions
12:15 AM 35.6 °F - 35.6 °F 100% 30.32 in 10.0 mi Calm Calm - N/A   Overcast
12:53 AM 35.1 °F - 33.1 °F 92% 30.32 in 10.0 mi Calm Calm - N/A   Overcast
1:10 AM 35.6 °F - 33.8 °F 93% 30.30 in 10.0 mi Calm Calm - N/A   Overcast
1:53 AM 35.1 °F - 34.0 °F 96% 30.31 in 7.0 mi Calm Calm - N/A   Overcast
2:16 AM 33.8 °F - 33.8 °F 100% 30.29 in 2.5 mi Calm Calm - N/A   Overcast
2:25 AM 33.8 °F - 33.8 °F 100% 30.29 in 0.8 mi Calm Calm - N/A   Overcast
2:35 AM 33.8 °F - 33.8 °F 100% 30.28 in 0.5 mi Calm Calm - N/A Fog Fog
2:53 AM 34.0 °F - 33.1 °F 96% 30.30 in 0.8 mi Calm Calm - N/A   Overcast
3:22 AM 33.8 °F - 33.8 °F 100% 30.27 in 1.0 mi Calm Calm - 0.00 in Rain Light Rain
3:42 AM 35.6 °F - 33.8 °F 93% 30.27 in 3.0 mi Calm Calm - 0.00 in Rain Light Rain
3:53 AM 35.1 °F - 35.1 °F 100% 30.28 in 2.5 mi Calm Calm - 0.00 in Rain Light Rain
4:04 AM 35.6 °F - 33.8 °F 93% 30.27 in 1.8 mi Calm Calm - 0.00 in   Overcast
4:09 AM 35.6 °F - 35.6 °F 100% 30.27 in 3.0 mi Calm Calm - 0.00 in Rain Light Rain
4:53 AM 35.1 °F - 34.0 °F 96% 30.27 in 2.0 mi Calm Calm - 0.00 in Rain Light Rain
5:00 AM 35.6 °F - 33.8 °F 93% 30.26 in 1.0 mi Calm Calm - 0.00 in   Overcast
5:09 AM 35.6 °F - 33.8 °F 93% 30.26 in 0.8 mi Calm Calm - 0.00 in   Mist
5:25 AM 35.6 °F - 35.6 °F 100% 30.25 in 1.5 mi Calm Calm - 0.00 in   Overcast
5:34 AM 35.6 °F - 35.6 °F 100% 30.25 in 3.0 mi Calm Calm - 0.00 in   Overcast
5:53 AM 35.1 °F - 34.0 °F 96% 30.26 in 2.5 mi Calm Calm - 0.00 in   Overcast
6:09 AM 35.6 °F - 35.6 °F 100% 30.24 in 3.0 mi Calm Calm - N/A   Overcast
6:24 AM 35.6 °F - 33.8 °F 93% 30.24 in 3.0 mi Calm Calm - N/A   Overcast
6:32 AM 35.6 °F - 33.8 °F 93% 30.23 in 1.8 mi Calm Calm - N/A   Overcast
6:41 AM 35.6 °F - 35.6 °F 100% 30.23 in 3.0 mi Calm Calm - N/A   Overcast
6:53 AM 36.0 °F - 35.1 °F 97% 30.24 in 4.0 mi Calm Calm - N/A   Overcast
7:10 AM 35.6 °F - 33.8 °F 93% 30.22 in 3.0 mi Calm Calm - N/A   Overcast
7:22 AM 35.6 °F - 33.8 °F 93% 30.21 in 1.8 mi Calm Calm - N/A   Overcast
7:38 AM 35.6 °F - 35.6 °F 100% 30.21 in 3.0 mi Calm Calm - N/A   Overcast
7:53 AM 36.0 °F - 35.1 °F 97% 30.22 in 4.0 mi Calm Calm - N/A   Overcast
8:53 AM 37.0 °F - 35.1 °F 93% 30.20 in 9.0 mi Calm Calm - N/A   Overcast
9:53 AM 37.9 °F - 35.1 °F 89% 30.19 in 10.0 mi Calm Calm - N/A   Overcast
10:17 AM 37.4 °F - 35.6 °F 93% 30.16 in 7.0 mi Calm Calm - N/A   Overcast
10:42 AM 37.4 °F - 35.6 °F 93% 30.16 in 6.0 mi Calm Calm - N/A   Overcast
10:53 AM 37.9 °F 34.4 °F 35.1 °F 89% 30.17 in 8.0 mi Variable 4.6 mph - N/A   Overcast
11:20 AM 39.2 °F - 33.8 °F 81% 30.14 in 10.0 mi Calm Calm - N/A   Overcast
11:53 AM 37.9 °F 35.5 °F 35.1 °F 89% 30.14 in 10.0 mi ESE 3.5 mph - N/A   Overcast
12:53 PM 39.0 °F 36.8 °F 34.0 °F 82% 30.11 in 10.0 mi SSW 3.5 mph - N/A   Overcast
1:16 PM 39.2 °F 35.9 °F 33.8 °F 81% 30.09 in 10.0 mi SW 4.6 mph - N/A   Overcast
1:53 PM 39.9 °F 37.8 °F 34.0 °F 79% 30.08 in 10.0 mi SW 3.5 mph - N/A   Overcast
2:53 PM 39.9 °F 35.1 °F 34.0 °F 79% 30.05 in 10.0 mi SSW 6.9 mph - 0.01 in   Scattered Clouds
3:21 PM 41.0 °F 37.1 °F 33.8 °F 76% 30.02 in 10.0 mi Variable 5.8 mph - N/A   Mostly Cloudy
3:42 PM 41.0 °F 38.0 °F 33.8 °F 76% 30.01 in 10.0 mi South 4.6 mph - N/A   Scattered Clouds
3:53 PM 39.9 °F 35.8 °F 34.0 °F 79% 30.01 in 10.0 mi South 5.8 mph - N/A   Partly Cloudy
4:53 PM 39.9 °F 36.7 °F 34.0 °F 79% 29.98 in 10.0 mi SW 4.6 mph - N/A   Mostly Cloudy
5:37 PM 39.2 °F 37.0 °F 33.8 °F 81% 29.94 in 10.0 mi Variable 3.5 mph - N/A   Overcast
5:53 PM 39.9 °F 36.7 °F 34.0 °F 79% 29.95 in 10.0 mi WSW 4.6 mph - N/A   Overcast
6:53 PM 39.0 °F 35.7 °F 34.0 °F 82% 29.93 in 10.0 mi WSW 4.6 mph - 0.00 in Rain Light Rain
7:22 PM 37.4 °F 32.8 °F 33.8 °F 87% 29.90 in 10.0 mi SSW 5.8 mph - 0.00 in Rain Light Rain
7:35 PM 37.4 °F 32.8 °F 33.8 °F 87% 29.90 in 10.0 mi SW 5.8 mph - 0.00 in Rain Light Rain
7:53 PM 37.0 °F - 34.0 °F 89% 29.90 in 10.0 mi Calm Calm - 0.00 in   Mostly Cloudy
8:53 PM 37.0 °F - 32.0 °F 82% 29.86 in 10.0 mi Calm Calm - N/A   Mostly Cloudy
9:53 PM 36.0 °F - 32.0 °F 86% 29.85 in 10.0 mi Calm Calm - N/A   Overcast
10:53 PM 36.0 °F 31.1 °F 32.0 °F 86% 29.83 in 10.0 mi North 5.8 mph - N/A   Overcast
11:16 PM 35.6 °F 29.9 °F 32.0 °F 87% 29.83 in 6.0 mi North 6.9 mph - 0.01 in Rain Light Rain
11:53 PM 33.1 °F 28.7 °F 32.0 °F 96% 29.83 in 10.0 mi West 4.6 mph - 0.02 in Rain Light Rain